CPA005 RCKH-RCTP

Flight info

Callsign CPA005
Flight time 0h 31m
Altitude 21000
Route TNN1F TNN TNN1A
Aircraft B742/H-SDFHIRWXY/L

Departure

Time 2026-05-09 00:33
Airport Kaohsiung International Airport (RCKH)

Arrival

Time 2026-05-09 01:04
Airport Taiwan Taoyuan International Airport (RCTP)
Time Latitude Longitude Altitude Speed Heading
2026-05-09 00:14 22.57476 120.34399 30 ft 0 kts
2026-05-09 00:24 22.57467 120.34399 31 ft 2 kts
2026-05-09 00:24 22.57452 120.34398 31 ft 2 kts
2026-05-09 00:24 22.57437 120.34398 31 ft 2 kts
2026-05-09 00:25 22.57422 120.34397 31 ft 2 kts
2026-05-09 00:25 22.57408 120.34392 32 ft 2 kts 37°
2026-05-09 00:25 22.57400 120.34380 32 ft 2 kts 71°
2026-05-09 00:25 22.57398 120.34369 32 ft 0 kts 91°
2026-05-09 00:28 22.57398 120.34403 32 ft 11 kts 91°
2026-05-09 00:28 22.57392 120.34532 34 ft 17 kts 93°
2026-05-09 00:28 22.57442 120.34614 35 ft 13 kts
2026-05-09 00:29 22.57532 120.34632 36 ft 14 kts 37°
2026-05-09 00:29 22.57545 120.34750 36 ft 17 kts 91°
2026-05-09 00:29 22.57541 120.34898 36 ft 23 kts 92°
2026-05-09 00:29 22.57537 120.35104 36 ft 32 kts 93°
2026-05-09 00:30 22.57529 120.35362 36 ft 33 kts 92°
2026-05-09 00:30 22.57521 120.35609 36 ft 32 kts 91°
2026-05-09 00:30 22.57512 120.35846 36 ft 31 kts 91°
2026-05-09 00:30 22.57504 120.36081 33 ft 30 kts 92°
2026-05-09 00:31 22.57498 120.36310 30 ft 30 kts 92°
2026-05-09 00:31 22.57511 120.36504 30 ft 21 kts 40°
2026-05-09 00:31 22.57650 120.36510 27 ft 19 kts 314°
2026-05-09 00:31 22.57665 120.36375 27 ft 17 kts 270°
2026-05-09 00:32 22.57671 120.36221 29 ft 37 kts 273°
2026-05-09 00:32 22.57688 120.35669 33 ft 105 kts 271°
2026-05-09 00:32 22.57718 120.34662 57 ft 158 kts 272°
2026-05-09 00:32 22.57753 120.33450 523 ft 167 kts 274°
2026-05-09 00:33 22.57793 120.32160 1115 ft 173 kts 274°
2026-05-09 00:33 22.57833 120.30849 1726 ft 177 kts 275°
2026-05-09 00:33 22.57875 120.29533 2345 ft 179 kts 273°
2026-05-09 00:33 22.57917 120.28172 2628 ft 187 kts 272°
2026-05-09 00:34 22.57978 120.26717 2771 ft 203 kts 276°
2026-05-09 00:34 22.58467 120.25224 2894 ft 218 kts 310°
2026-05-09 00:34 22.59768 120.24297 3038 ft 232 kts 349°
2026-05-09 00:34 22.61414 120.24231 3223 ft 244 kts
2026-05-09 00:35 22.63161 120.24239 3570 ft 254 kts
2026-05-09 00:35 22.64993 120.24168 3830 ft 272 kts 358°
2026-05-09 00:35 22.66934 120.24050 4333 ft 279 kts 357°
2026-05-09 00:35 22.68872 120.23919 5051 ft 278 kts 357°
2026-05-09 00:36 22.70816 120.23785 5644 ft 282 kts 356°
2026-05-09 00:36 22.72813 120.23645 6291 ft 283 kts 356°
2026-05-09 00:36 22.74796 120.23506 6886 ft 286 kts 356°
2026-05-09 00:36 22.76760 120.23369 7558 ft 286 kts 356°
2026-05-09 00:37 22.78745 120.23230 8168 ft 288 kts 355°
2026-05-09 00:37 22.80758 120.23089 8807 ft 289 kts 355°
2026-05-09 00:37 22.82778 120.22945 9409 ft 292 kts 355°
2026-05-09 00:37 22.84825 120.22800 9958 ft 297 kts 355°
2026-05-09 00:38 22.86948 120.22650 10166 ft 315 kts 355°
2026-05-09 00:38 22.89230 120.22488 10355 ft 334 kts 355°
2026-05-09 00:38 22.91647 120.22317 10345 ft 359 kts 355°
2026-05-09 00:38 22.94213 120.22134 10334 ft 383 kts 355°
2026-05-09 00:39 22.96985 120.21938 10503 ft 400 kts 355°
2026-05-09 00:39 22.99742 120.21745 11353 ft 397 kts 355°
2026-05-09 00:39 23.02518 120.21551 12029 ft 399 kts 355°
2026-05-09 00:39 23.05319 120.21352 12619 ft 403 kts 355°
2026-05-09 00:40 23.08143 120.21151 13231 ft 406 kts 355°
2026-05-09 00:40 23.10979 120.20987 13852 ft 410 kts 357°
2026-05-09 00:40 23.13851 120.21024 14457 ft 413 kts
2026-05-09 00:41 23.19615 120.21512 15605 ft 420 kts
2026-05-09 00:41 23.22536 120.21846 16195 ft 423 kts
2026-05-09 00:41 23.25475 120.22199 16790 ft 426 kts
2026-05-09 00:41 23.28440 120.22559 17348 ft 429 kts
2026-05-09 00:42 23.31426 120.22921 17886 ft 432 kts
2026-05-09 00:42 23.34435 120.23286 18421 ft 435 kts
2026-05-09 00:42 23.37469 120.23653 18982 ft 438 kts
2026-05-09 00:42 23.40514 120.24021 19532 ft 441 kts
2026-05-09 00:43 23.43572 120.24390 20018 ft 445 kts
2026-05-09 00:43 23.46730 120.24771 20391 ft 453 kts
2026-05-09 00:43 23.49893 120.25153 20706 ft 460 kts
2026-05-09 00:43 23.53109 120.25540 20943 ft 469 kts
2026-05-09 00:44 23.56396 120.25936 21022 ft 482 kts
2026-05-09 00:44 23.59808 120.26348 21034 ft 491 kts
2026-05-09 00:44 23.63193 120.26760 21035 ft 492 kts
2026-05-09 00:44 23.66639 120.27199 21024 ft 490 kts
2026-05-09 00:45 23.70018 120.27864 21028 ft 493 kts
2026-05-09 00:45 23.73403 120.28776 21035 ft 495 kts 11°
2026-05-09 00:45 23.76721 120.29819 21020 ft 496 kts 13°
2026-05-09 00:45 23.80027 120.30935 21018 ft 496 kts 13°
2026-05-09 00:46 23.83323 120.32081 21032 ft 497 kts 14°
2026-05-09 00:46 23.86635 120.33242 21033 ft 494 kts 14°
2026-05-09 00:46 23.89891 120.34386 21033 ft 487 kts 13°
2026-05-09 00:46 23.93177 120.35535 20685 ft 500 kts 13°
2026-05-09 00:47 23.96477 120.36684 20241 ft 496 kts 14°
2026-05-09 00:47 23.99678 120.37803 19803 ft 489 kts 14°
2026-05-09 00:47 24.02915 120.38934 19391 ft 487 kts 13°
2026-05-09 00:47 24.06172 120.40070 18919 ft 486 kts 14°
2026-05-09 00:48 24.09422 120.41203 18506 ft 483 kts 14°
2026-05-09 00:48 24.12624 120.42322 18090 ft 481 kts 14°
2026-05-09 00:48 24.15809 120.43435 17731 ft 478 kts 14°
2026-05-09 00:48 24.18970 120.44539 17308 ft 476 kts 14°
2026-05-09 00:49 24.22137 120.45646 16894 ft 473 kts 14°
2026-05-09 00:49 24.25259 120.46738 16502 ft 470 kts 14°
2026-05-09 00:49 24.28365 120.47824 16118 ft 468 kts 14°
2026-05-09 00:49 24.31458 120.48907 15690 ft 465 kts 14°
2026-05-09 00:50 24.34540 120.49988 15257 ft 461 kts 14°
2026-05-09 00:50 24.37620 120.51067 14851 ft 459 kts 14°
2026-05-09 00:50 24.40678 120.52139 14427 ft 457 kts 14°
2026-05-09 00:50 24.43693 120.53197 13981 ft 454 kts 14°
2026-05-09 00:51 24.46725 120.54262 13515 ft 450 kts 15°
2026-05-09 00:51 24.49701 120.55308 13116 ft 448 kts 15°
2026-05-09 00:51 24.52658 120.56347 12655 ft 446 kts 15°
2026-05-09 00:51 24.55650 120.57399 12188 ft 443 kts 15°
2026-05-09 00:52 24.58555 120.58421 11762 ft 441 kts 15°
2026-05-09 00:52 24.61476 120.59450 11334 ft 436 kts 15°
2026-05-09 00:52 24.64363 120.60497 10910 ft 424 kts 18°
2026-05-09 00:52 24.66994 120.61890 10472 ft 416 kts 28°
2026-05-09 00:53 24.69345 120.63661 10021 ft 408 kts 35°
2026-05-09 00:53 24.70830 120.64966 9777 ft 401 kts 38°
2026-05-09 00:53 24.75463 120.69469 9772 ft 356 kts 40°
2026-05-09 00:54 24.77264 120.71259 9761 ft 339 kts 40°
2026-05-09 00:54 24.79005 120.72984 9392 ft 335 kts 40°
2026-05-09 00:54 24.80751 120.74706 8962 ft 333 kts 40°
2026-05-09 00:54 24.82460 120.76394 8589 ft 329 kts 40°
2026-05-09 00:55 24.84162 120.78074 8256 ft 325 kts 41°
2026-05-09 00:55 24.85848 120.79740 7915 ft 322 kts 41°
2026-05-09 00:55 24.87494 120.81368 7542 ft 319 kts 41°
2026-05-09 00:55 24.89140 120.83006 7192 ft 315 kts 43°
2026-05-09 00:56 24.90580 120.84789 6852 ft 312 kts 57°
2026-05-09 00:56 24.91447 120.86945 6512 ft 306 kts 80°
2026-05-09 00:56 24.91649 120.89276 6180 ft 300 kts 92°
2026-05-09 00:56 24.91599 120.91550 5881 ft 297 kts 95°
2026-05-09 00:57 24.91492 120.93811 5533 ft 293 kts 95°
2026-05-09 00:57 24.91386 120.96031 5182 ft 290 kts 92°
2026-05-09 00:57 24.91761 120.98199 4842 ft 286 kts 64°
2026-05-09 00:57 24.93005 120.99846 4507 ft 284 kts 36°
2026-05-09 00:58 24.94855 121.00622 4171 ft 285 kts
2026-05-09 00:58 24.96812 121.00590 3846 ft 281 kts
2026-05-09 00:58 24.97482 121.00569 3732 ft 280 kts
2026-05-09 00:58 25.00577 121.00993 3218 ft 259 kts 27°
2026-05-09 00:59 25.02136 121.01872 3114 ft 237 kts 43°
2026-05-09 00:59 25.02992 121.03266 3090 ft 214 kts 71°
2026-05-09 00:59 25.03367 121.04791 3096 ft 195 kts 75°
2026-05-09 00:59 25.03497 121.06194 3090 ft 178 kts 89°
2026-05-09 01:00 25.03418 121.07543 2902 ft 177 kts 90°
2026-05-09 01:00 25.03126 121.08871 2583 ft 181 kts 104°
2026-05-09 01:00 25.02670 121.10153 2271 ft 178 kts 98°
2026-05-09 01:00 25.02384 121.11461 1955 ft 181 kts 104°
2026-05-09 01:01 25.01888 121.12766 1646 ft 181 kts 105°
2026-05-09 01:01 25.01420 121.14005 1534 ft 165 kts 95°
2026-05-09 01:01 25.01643 121.15030 1482 ft 128 kts 37°
2026-05-09 01:01 25.02367 121.15526 1619 ft 119 kts 40°
2026-05-09 01:02 25.02951 121.16181 1572 ft 116 kts 49°
2026-05-09 01:02 25.03532 121.16878 1193 ft 124 kts 48°
2026-05-09 01:02 25.04107 121.17567 979 ft 122 kts 48°
2026-05-09 01:02 25.04654 121.18272 925 ft 121 kts 51°
2026-05-09 01:03 25.05217 121.18977 738 ft 120 kts 47°
2026-05-09 01:03 25.05772 121.19679 632 ft 123 kts 51°
2026-05-09 01:03 25.06340 121.20415 450 ft 126 kts 48°
2026-05-09 01:03 25.06923 121.21133 263 ft 126 kts 50°
2026-05-09 01:04 25.07499 121.21866 126 ft 126 kts 49°
2026-05-09 01:04 25.08043 121.22557 118 ft 108 kts 49°
2026-05-09 01:04 25.08437 121.23057 117 ft 64 kts 48°
2026-05-09 01:04 25.08627 121.23306 117 ft 26 kts 54°
2026-05-09 01:05 25.08694 121.23465 117 ft 21 kts 75°
2026-05-09 01:05 25.08722 121.23620 117 ft 19 kts 80°
2026-05-09 01:05 25.08800 121.23841 117 ft 18 kts 52°
2026-05-09 01:06 25.08881 121.23947 117 ft 17 kts 49°
2026-05-09 01:06 25.08967 121.24057 117 ft 20 kts 50°
2026-05-09 01:06 25.09060 121.24177 117 ft 19 kts 47°
2026-05-09 01:06 25.09087 121.24224 117 ft 1 kts 88°
2026-05-09 01:07 25.09079 121.24242 117 ft 6 kts 131°
2026-05-09 01:07 25.09042 121.24275 117 ft 6 kts 139°
2026-05-09 01:07 25.09013 121.24303 117 ft 0 kts 139°